Wind_Speed
8 7 7 6 5 5 5 5 5 6 6 7 6 6 5 5 6 6 6 5 6 6 7 8 8 8 9 9 9 10 10 10 12 12 11 11 10 10 10 10 9 8 7
6 6 6 5 4 4 4 4 4 4 5 5 5 5 4 4 4 4 5 5 5 5 6 7 7 8 9 9 9 10 11 12 13 14 14 13 12 12 11 11 11 10 9
5 4 4 3 2 2 2 2 2 2 3 4 4 4 4 3 3 3 3 3 4 4 5 6 7 7 8 9 9 10 11 12 13 14 15 15 15 14 14 13 13 12 11
5 4 3 3 3 2 1 1 1 1 2 3 4 4 4 3 3 3 3 3 4 4 5 6 7 8 8 8 9 10 11 12 14 15 15 16 17 17 16 15 14 14 14
5 4 4 3 3 2 1 1 1 1 1 2 3 4 4 3 3 3 3 3 3 4 4 5 6 7 8 9 9 10 10 11 13 13 15 17 17 18 19 18 17 16 16
6 5 5 4 3 2 2 1 1 1 1 2 2 4 5 4 4 4 3 3 3 3 4 4 5 6 7 8 9 9 10 11 12 13 13 15 17 18 19 20 20 19 18
7 7 6 5 4 3 2 2 2 2 2 2 3 3 4 4 5 5 4 3 2 2 3 3 3 4 5 7 8 9 10 11 12 13 13 14 15 17 19 20 21 21 20
9 7 6 5 4 3 2 2 2 2 2 2 3 3 4 4 5 5 4 3 3 2 3 3 3 3 4 5 7 8 9 10 11 12 13 14 15 17 18 20 22 22 22
9 8 6 5 4 3 3 2 2 2 3 3 3 3 4 4 5 5 5 4 3 3 3 3 4 4 5 6 6 7 8 9 10 11 12 13 14 15 18 20 22 23 24
9 8 7 6 5 4 2 2 2 2 2 2 3 3 4 4 5 5 5 5 4 4 4 4 5 6 6 6 7 8 8 9 10 11 13 13 13 14 16 17 19 22 24
10 9 8 7 5 4 3 2 1 1 1 2 3 3 4 5 5 5 5 5 5 5 5 5 6 6 7 7 8 8 9 10 11 12 13 14 14 15 15 17 18 20 21
11 10 9 8 6 5 4 3 2 2 2 2 3 4 4 5 6 6 6 6 6 6 7 7 7 7 8 8 9 9 10 11 12 13 13 14 15 16 17 17 18 19 20
12 11 10 9 8 7 6 5 5 5 4 5 5 5 6 6 7 7 7 7 7 7 8 8 8 8 9 9 9 10 11 12 13 14 15 15 16 17 18 19 19 20 21
13 12 11 11 10 9 8 8 8 7 7 7 8 8 8 8 9 9 9 10 10 9 9 9 10 10 10 10 10 11 11 12 13 14 15 16 17 18 19 19 20 21 22
14 14 13 13 12 11 11 11 11 10 10 10 10 10 11 11 11 11 11 11 12 12 11 11 11 11 12 12 12 12 13 13 14 15 16 17 18 19 20 21 22 23 24
15 15 15 14 14 14 14 14 14 14 13 13 13 13 14 14 14 13 13 13 14 14 14 13 13 13 13 14 14 15 15 15 15 16 17 18 18 20 21 22 22 24 25
17 17 17 17 17 16 16 17 17 17 17 17 16 16 16 16 16 16 16 16 16 16 16 16 16 16 16 16 16 16 17 17 18 18 18 19 19 20 21 22 23 24 25
19 19 19 20 20 19 19 20 20 20 20 20 19 19 19 19 19 19 18 18 18 18 18 19 19 19 19 19 19 19 19 19 20 21 21 21 21 22 22 23 24 25 26
21 21 22 22 23 23 23 23 23 23 23 22 22 22 21 21 21 21 21 21 21 21 21 21 22 22 22 22 22 21 21 22 22 23 23 24 24 24 24 24 25 26 27
22 23 23 24 25 25 26 26 26 25 25 25 24 24 24 24 24 24 24 24 24 24 24 24 24 24 24 25 25 25 25 25 25 25 26 26 26 27 27 27 27 27 27
23 24 25 26 27 28 29 28 28 28 27 27 27 27 27 27 27 26 26 26 27 27 27 27 27 27 27 27 28 28 28 28 28 28 28 28 29 29 29 30 30 30 30
25 26 27 28 29 29 29 30 30 29 29 29 29 30 29 29 29 29 29 29 29 29 30 30 30 30 30 31 31 31 31 31 31 32 31 31 32 31 32 32 32 32 33
27 28 29 30 30 31 31 31 31 30 30 30 30 31 31 31 32 32 32 32 32 32 33 33 33 33 33 34 35 35 35 35 34 35 35 34 34 34 34 34 35 35 35
29 29 30 30 31 31 32 32 33 33 33 32 33 33 34 34 35 36 36 35 35 35 36 36 36 36 37 38 38 39 38 38 38 38 38 37 37 37 37 37 37 37 37
29 30 31 31 32 33 33 32 32 33 34 34 34 35 36 37 38 39 38 38 37 38 39 39 39 40 40 41 42 42 43 43 42 41 42 41 40 41 40 40 40 40 40
31 32 32 32 32 33 34 33 34 35 36 37 37 38 39 39 40 40 40 40 40 41 42 43 43 43 44 45 46 47 47 48 47 45 45 46 45 45 44 43 44 43 43
Wind_Direction
262 266 273 270 270 273 276 277 277 282 289 295 301 303 301 291 278 274 270 264 259 256 245 237 237 240 241 242 243 240 239 237 234 232 231 228 225 224 224 223 222 222 223
246 255 257 253 262 263 265 273 278 285 296 301 306 309 305 303 289 275 272 270 268 259 250 242 238 243 244 247 246 244 242 241 238 235 233 232 232 230 229 228 228 226 226
227 231 232 231 235 238 250 267 278 296 309 314 320 325 320 317 313 294 286 281 276 268 252 246 243 247 249 248 247 248 245 243 239 238 236 234 233 234 234 233 232 231 230
207 199 190 180 180 182 197 230 270 316 324 333 338 342 343 333 326 315 306 291 278 273 263 254 251 250 252 250 248 251 249 243 241 240 239 237 235 235 234 234 235 233 233
193 181 169 163 168 169 165 143 115 27 351 346 350 354 357 356 347 343 334 312 289 275 269 261 257 256 256 253 252 251 249 244 242 244 241 239 238 237 235 235 235 235 235
183 176 168 165 165 156 144 123 93 64 22 358 352 355 0 5 3 351 342 329 305 285 275 267 265 266 259 253 251 251 250 246 245 245 243 242 241 240 238 236 235 235 236
178 174 171 170 167 158 146 124 92 63 29 8 5 5 4 8 8 2 354 347 329 310 294 284 280 278 266 254 254 254 255 249 246 244 245 245 243 242 239 237 235 236 236
178 175 171 169 165 157 140 117 99 76 56 44 33 22 18 15 11 9 9 7 352 331 306 294 294 288 279 265 262 261 262 254 248 246 247 247 246 245 242 239 237 237 238
181 179 177 177 173 163 141 120 105 81 71 68 53 36 26 20 15 8 2 360 354 339 318 304 298 293 288 279 271 266 265 262 255 252 251 251 250 249 245 242 242 241 241
187 188 189 187 182 175 162 141 114 91 78 65 49 30 19 14 10 5 0 356 349 340 324 310 299 291 286 282 275 270 266 263 260 258 255 253 253 252 249 246 245 245 244
195 197 198 196 192 189 187 181 163 109 53 33 22 16 11 8 3 357 353 348 343 337 328 318 305 296 290 286 281 275 270 267 264 261 259 256 255 253 253 251 249 247 247
203 205 207 206 206 207 211 221 240 266 299 322 337 346 349 348 350 347 344 342 336 330 325 319 311 304 298 291 285 280 276 271 269 268 265 261 259 256 255 254 253 250 250
210 211 214 215 219 226 232 241 257 270 282 294 307 315 318 319 323 327 327 327 326 322 319 318 315 310 303 297 291 285 281 276 272 270 268 265 263 261 259 256 255 252 251
216 219 222 224 230 237 242 248 258 268 278 287 295 302 304 304 307 312 314 315 316 314 311 310 310 308 304 300 295 290 285 282 277 273 270 268 266 264 262 260 257 255 254
223 226 228 232 239 245 250 254 259 266 274 282 289 292 294 295 296 299 303 305 307 306 303 301 299 298 298 296 294 291 287 283 281 277 274 272 269 266 264 263 261 259 258
230 234 237 241 246 250 254 257 261 265 271 277 281 285 288 289 290 292 295 298 298 297 297 295 293 291 290 291 291 289 287 286 284 281 277 274 272 269 267 265 263 262 260
236 239 243 247 251 254 258 261 263 266 270 274 277 280 282 285 286 287 291 292 293 292 291 291 290 288 288 289 289 288 285 285 285 284 280 277 274 271 269 267 266 264 262
242 246 250 253 255 258 261 264 265 267 269 271 274 276 278 281 284 284 287 288 289 289 288 288 287 286 286 287 287 286 285 285 284 283 281 279 277 274 271 269 267 266 264
249 252 254 255 257 260 262 264 265 267 268 270 272 274 277 279 281 283 284 285 286 286 285 286 285 284 284 286 286 286 286 285 284 283 281 279 278 276 273 271 269 268 266
253 255 256 258 259 261 263 264 263 265 268 269 271 273 275 277 279 280 282 283 284 284 284 284 284 282 282 283 284 284 284 284 284 283 281 279 277 276 274 272 271 269 268
255 257 258 260 262 263 265 266 265 264 266 268 269 271 273 276 277 278 279 281 282 282 282 282 282 281 281 281 281 281 281 282 282 281 279 279 277 275 274 272 271 270 269
258 260 261 262 264 265 268 267 266 265 266 267 269 270 272 274 276 277 278 280 280 280 280 280 280 280 280 280 280 280 280 280 279 278 277 276 275 274 273 272 271 271 270
261 261 263 264 265 265 265 265 265 265 266 268 269 270 272 273 275 277 279 279 280 279 279 279 279 279 279 279 279 279 279 278 278 277 276 275 274 272 271 271 271 270 270
263 264 263 263 265 267 268 267 265 264 265 267 268 269 272 273 275 276 277 277 278 278 278 277 278 278 279 279 279 279 279 279 278 277 276 274 273 272 271 271 270 270 269
267 267 266 267 267 267 266 267 267 268 268 267 268 270 272 273 274 275 276 277 276 277 277 277 278 278 278 278 278 278 279 279 279 277 277 275 273 271 271 271 270 270 269
270 269 269 269 270 267 266 269 269 271 271 270 269 270 272 273 274 275 275 275 275 276 277 278 278 278 278 278 278 278 278 278 278 277 276 275 273 272 270 270 270 269 269
Height
5885 5885 5885 5884 5883 5883 5883 5882 5881 5881 5880 5879 5879 5879 5879 5879 5879 5879 5879 5879 5879 5880 5880 5881 5882 5882 5883 5884 5885 5886 5887 5888 5890 5892 5893 5894 5895 5897 5898 5899 5899 5900 5901
5883 5884 5883 5883 5882 5882 5882 5881 5881 5880 5879 5878 5878 5878 5878 5878 5877 5878 5878 5878 5878 5878 5878 5879 5880 5880 5881 5882 5883 5884 5885 5886 5888 5889 5891 5892 5894 5895 5896 5897 5898 5899 5900
5882 5882 5882 5882 5881 5881 5881 5881 5880 5879 5879 5878 5877 5877 5877 5877 5876 5876 5876 5876 5876 5876 5877 5877 5878 5878 5879 5880 5880 5881 5882 5884 5885 5886 5888 5889 5891 5893 5894 5895 5896 5897 5898
5880 5881 5881 5881 5881 5881 5881 5880 5880 5879 5878 5878 5877 5877 5876 5876 5875 5875 5875 5875 5875 5875 5875 5875 5876 5876 5877 5878 5878 5879 5880 5881 5882 5883 5885 5886 5888 5890 5891 5893 5894 5895 5896
5879 5880 5880 5880 5880 5880 5880 5880 5879 5879 5878 5878 5877 5877 5876 5875 5875 5874 5874 5874 5874 5874 5874 5874 5874 5875 5875 5875 5876 5876 5877 5878 5879 5880 5881 5883 5884 5886 5888 5889 5891 5893 5894
5878 5879 5880 5880 5880 5880 5880 5880 5879 5879 5878 5878 5877 5877 5876 5875 5874 5874 5873 5873 5873 5872 5872 5872 5873 5873 5873 5873 5873 5874 5875 5875 5876 5877 5878 5879 5881 5882 5884 5886 5887 5889 5891
5878 5879 5879 5879 5880 5880 5880 5879 5879 5878 5878 5877 5877 5876 5876 5875 5874 5873 5873 5872 5872 5871 5871 5871 5871 5871 5871 5871 5871 5872 5872 5873 5873 5874 5875 5876 5877 5878 5880 5881 5883 5885 5887
5877 5878 5878 5879 5879 5879 5879 5879 5879 5878 5878 5877 5877 5876 5875 5875 5874 5873 5872 5872 5871 5870 5870 5870 5870 5869 5869 5869 5869 5870 5870 5870 5870 5871 5872 5872 5873 5874 5875 5877 5879 5881 5883
5876 5877 5877 5878 5879 5879 5879 5878 5878 5878 5878 5877 5877 5876 5875 5875 5874 5873 5872 5871 5871 5870 5869 5869 5868 5868 5868 5868 5867 5867 5867 5867 5868 5868 5869 5869 5870 5870 5871 5873 5874 5876 5878
5875 5876 5877 5877 5878 5878 5878 5878 5878 5877 5877 5877 5876 5876 5875 5874 5874 5873 5872 5871 5870 5869 5868 5868 5867 5866 5866 5866 5865 5865 5865 5865 5865 5865 5865 5866 5866 5867 5868 5868 5870 5871 5873
5874 5875 5876 5876 5877 5877 5877 5877 5877 5877 5877 5876 5876 5875 5874 5873 5873 5872 5871 5870 5869 5868 5867 5866 5865 5865 5864 5863 5863 5863 5862 5862 5862 5862 5862 5863 5863 5864 5864 5864 5865 5866 5867
5872 5873 5874 5875 5875 5876 5876 5876 5876 5876 5875 5875 5875 5874 5873 5872 5871 5870 5869 5868 5867 5866 5865 5864 5863 5862 5862 5861 5860 5860 5859 5859 5859 5859 5859 5859 5859 5859 5860 5860 5861 5861 5862
5870 5871 5872 5873 5874 5874 5874 5875 5875 5874 5874 5873 5873 5872 5871 5871 5870 5869 5868 5866 5865 5864 5863 5862 5861 5860 5859 5858 5857 5857 5856 5856 5855 5855 5855 5855 5855 5855 5855 5855 5856 5857 5857
5868 5869 5870 5871 5871 5872 5872 5872 5872 5872 5872 5871 5870 5870 5869 5868 5867 5866 5865 5864 5863 5862 5861 5860 5858 5857 5856 5855 5854 5853 5853 5852 5851 5851 5850 5850 5850 5850 5850 5850 5851 5851 5852
5865 5866 5867 5868 5869 5869 5869 5869 5869 5869 5868 5868 5867 5866 5866 5865 5864 5863 5862 5861 5860 5859 5858 5856 5855 5854 5853 5851 5850 5849 5849 5848 5847 5846 5846 5845 5845 5845 5845 5845 5845 5845 5846
5862 5863 5864 5864 5865 5865 5865 5865 5865 5865 5864 5864 5863 5862 5861 5860 5860 5859 5858 5857 5856 5855 5853 5852 5851 5850 5849 5848 5846 5845 5844 5843 5842 5842 5841 5840 5840 5839 5839 5839 5839 5839 5839
5858 5859 5860 5860 5861 5861 5861 5861 5860 5860 5860 5859 5858 5857 5856 5855 5854 5853 5853 5852 5851 5850 5849 5848 5846 5845 5844 5843 5841 5840 5839 5838 5837 5836 5835 5835 5834 5833 5833 5833 5832 5832 5832
5854 5854 5855 5855 5856 5856 5856 5855 5855 5855 5854 5854 5853 5852 5851 5850 5849 5848 5847 5846 5845 5844 5843 5842 5841 5839 5838 5837 5836 5835 5833 5832 5831 5830 5829 5828 5827 5827 5826 5826 5825 5825 5825
5849 5849 5849 5850 5850 5850 5850 5849 5849 5848 5848 5847 5847 5846 5845 5844 5843 5842 5841 5839 5839 5838 5837 5835 5834 5833 5832 5830 5829 5828 5827 5825 5824 5823 5822 5821 5820 5819 5819 5818 5818 5817 5817
5843 5843 5843 5844 5844 5843 5843 5843 5842 5841 5841 5841 5840 5839 5838 5837 5836 5835 5834 5833 5832 5831 5830 5828 5827 5826 5824 5823 5822 5820 5819 5818 5817 5815 5814 5813 5812 5811 5811 5810 5810 5809 5809
5836 5836 5837 5837 5836 5836 5835 5835 5834 5834 5834 5833 5832 5831 5830 5829 5828 5827 5826 5825 5824 5823 5822 5821 5819 5818 5817 5815 5814 5813 5811 5810 5808 5807 5806 5805 5804 5803 5802 5801 5801 5800 5800
5829 5829 5829 5829 5828 5828 5827 5826 5826 5826 5825 5825 5824 5823 5822 5821 5820 5819 5818 5817 5816 5814 5813 5812 5811 5809 5808 5806 5805 5803 5802 5801 5800 5798 5797 5796 5794 5793 5792 5791 5791 5790 5790
5821 5821 5821 5820 5820 5819 5818 5817 5817 5816 5816 5816 5815 5814 5813 5812 5811 5810 5809 5808 5806 5805 5803 5802 5801 5799 5798 5796 5794 5793 5792 5791 5790 5788 5786 5786 5784 5783 5782 5781 5780 5780 5779
5812 5812 5811 5811 5810 5810 5809 5808 5807 5806 5806 5806 5805 5805 5804 5803 5801 5800 5799 5798 5796 5795 5793 5791 5790 5789 5787 5785 5783 5781 5780 5779 5778 5777 5775 5775 5773 5772 5771 5770 5769 5768 5768
5803 5803 5802 5801 5800 5800 5799 5798 5798 5797 5796 5796 5795 5794 5793 5792 5791 5789 5787 5786 5785 5783 5781 5780 5778 5777 5775 5773 5771 5769 5767 5766 5765 5764 5762 5761 5761 5759 5758 5758 5757 5756 5755
5795 5794 5792 5791 5790 5789 5789 5788 5787 5786 5785 5785 5784 5783 5781 5780 5779 5777 5775 5774 5773 5771 5768 5767 5766 5764 5762 5760 5757 5755 5753 5751 5750 5751 5749 5746 5746 5744 5745 5745 5743 5742 5742